Year,Month,Day,Hour,Minute,Value (Times are PST for temperature in C)
2018,04,24,00,00,9.60
2018,04,24,00,01,9.60
2018,04,24,00,02,9.60
2018,04,24,00,03,9.60
2018,04,24,00,04,9.50
2018,04,24,00,05,9.50
2018,04,24,00,06,9.50
2018,04,24,00,07,9.40
2018,04,24,00,08,9.40
2018,04,24,00,09,9.40
2018,04,24,00,10,9.40
2018,04,24,00,11,9.40
2018,04,24,00,12,9.40
2018,04,24,00,13,9.40
2018,04,24,00,14,9.40
2018,04,24,00,15,9.30
2018,04,24,00,16,9.30
2018,04,24,00,17,9.30
2018,04,24,00,18,9.30
2018,04,24,00,19,9.30
2018,04,24,00,20,9.30
2018,04,24,00,21,9.30
2018,04,24,00,22,9.20
2018,04,24,00,23,9.20
2018,04,24,00,24,9.20
2018,04,24,00,25,9.20
2018,04,24,00,26,9.20
2018,04,24,00,27,9.20
2018,04,24,00,28,9.20
2018,04,24,00,29,9.20
2018,04,24,00,30,9.10
2018,04,24,00,31,9.10
2018,04,24,00,32,9.10
2018,04,24,00,33,9.10
2018,04,24,00,34,9.10
2018,04,24,00,35,9.10
2018,04,24,00,36,9.20
2018,04,24,00,37,9.20
2018,04,24,00,38,9.20
2018,04,24,00,39,9.20
2018,04,24,00,40,9.20
2018,04,24,00,41,9.30
2018,04,24,00,42,9.30
2018,04,24,00,43,9.30
2018,04,24,00,44,9.30
2018,04,24,00,45,9.40
2018,04,24,00,46,9.40
2018,04,24,00,47,9.40
2018,04,24,00,48,9.50
2018,04,24,00,49,9.50
2018,04,24,00,50,9.50
2018,04,24,00,51,9.50
2018,04,24,00,52,9.50
2018,04,24,00,53,9.50
2018,04,24,00,54,9.50
2018,04,24,00,55,9.50
2018,04,24,00,56,9.40
2018,04,24,00,57,9.40
2018,04,24,00,58,9.40
2018,04,24,00,59,9.40
2018,04,24,01,00,9.40
2018,04,24,01,01,9.40
2018,04,24,01,02,9.40
2018,04,24,01,03,9.40
2018,04,24,01,04,9.30
2018,04,24,01,05,9.30
2018,04,24,01,06,9.30
2018,04,24,01,07,9.30
2018,04,24,01,08,9.30
2018,04,24,01,09,9.30
2018,04,24,01,10,9.30
2018,04,24,01,11,9.20
2018,04,24,01,12,9.20
2018,04,24,01,13,9.20
2018,04,24,01,14,9.20
2018,04,24,01,15,9.20
2018,04,24,01,16,9.10
2018,04,24,01,17,9.10
2018,04,24,01,18,9.10
2018,04,24,01,19,9.10
2018,04,24,01,20,9.10
2018,04,24,01,21,9.10
2018,04,24,01,22,9.10
2018,04,24,01,23,9.10
2018,04,24,01,24,9.10
2018,04,24,01,25,9.10
2018,04,24,01,26,9.10
2018,04,24,01,27,9.10
2018,04,24,01,28,9.10
2018,04,24,01,29,9.00
2018,04,24,01,30,9.00
2018,04,24,01,31,9.00
2018,04,24,01,32,9.00
2018,04,24,01,33,8.90
2018,04,24,01,34,8.90
2018,04,24,01,35,8.90
2018,04,24,01,36,8.90
2018,04,24,01,37,8.90
2018,04,24,01,38,8.90
2018,04,24,01,39,8.80
2018,04,24,01,40,8.80
2018,04,24,01,41,8.90
2018,04,24,01,42,8.90
2018,04,24,01,43,8.90
2018,04,24,01,44,8.90
2018,04,24,01,45,8.90
2018,04,24,01,46,8.90
2018,04,24,01,47,9.00
2018,04,24,01,48,9.00
2018,04,24,01,49,9.00
2018,04,24,01,50,9.10
2018,04,24,01,51,9.10
2018,04,24,01,52,9.10
2018,04,24,01,53,9.10
2018,04,24,01,54,9.10
2018,04,24,01,55,9.20
2018,04,24,01,56,9.20
2018,04,24,01,57,9.20
2018,04,24,01,58,9.20
2018,04,24,01,59,9.20
2018,04,24,02,00,9.10
2018,04,24,02,01,9.10
2018,04,24,02,02,9.10
2018,04,24,02,03,9.10
2018,04,24,02,04,9.10
2018,04,24,02,05,9.10
2018,04,24,02,06,9.10
2018,04,24,02,07,9.10
2018,04,24,02,08,9.00
2018,04,24,02,09,9.00
2018,04,24,02,10,9.00
2018,04,24,02,11,8.90
2018,04,24,02,12,8.90
2018,04,24,02,13,8.90
2018,04,24,02,14,8.80
2018,04,24,02,15,8.80
2018,04,24,02,16,8.70
2018,04,24,02,17,8.70
2018,04,24,02,18,8.70
2018,04,24,02,19,8.70
2018,04,24,02,20,8.60
2018,04,24,02,21,8.60
2018,04,24,02,22,8.60
2018,04,24,02,23,8.50
2018,04,24,02,24,8.50
2018,04,24,02,25,8.40
2018,04,24,02,26,8.40
2018,04,24,02,27,8.40
2018,04,24,02,28,8.40
2018,04,24,02,29,8.40
2018,04,24,02,30,8.30
2018,04,24,02,31,8.30
2018,04,24,02,32,8.30
2018,04,24,02,33,8.20
2018,04,24,02,34,8.20
2018,04,24,02,35,8.20
2018,04,24,02,36,8.20
2018,04,24,02,37,8.20
2018,04,24,02,38,8.10
2018,04,24,02,39,8.10
2018,04,24,02,40,8.10
2018,04,24,02,41,8.10
2018,04,24,02,42,8.10
2018,04,24,02,43,8.00
2018,04,24,02,44,8.00
2018,04,24,02,45,8.00
2018,04,24,02,46,8.00
2018,04,24,02,47,8.00
2018,04,24,02,48,8.00
2018,04,24,02,49,7.90
2018,04,24,02,50,7.90
2018,04,24,02,51,8.00
2018,04,24,02,52,8.00
2018,04,24,02,53,8.00
2018,04,24,02,54,8.00
2018,04,24,02,55,8.00
2018,04,24,02,56,7.90
2018,04,24,02,57,7.90
2018,04,24,02,58,7.90
2018,04,24,02,59,7.90
2018,04,24,03,00,7.90
2018,04,24,03,01,7.90
2018,04,24,03,02,7.90
2018,04,24,03,03,7.90
2018,04,24,03,04,7.90
2018,04,24,03,05,7.90
2018,04,24,03,06,7.90
2018,04,24,03,07,7.90
2018,04,24,03,08,7.90
2018,04,24,03,09,7.90
2018,04,24,03,10,7.90
2018,04,24,03,11,7.90
2018,04,24,03,12,7.90
2018,04,24,03,13,7.90
2018,04,24,03,14,7.90
2018,04,24,03,15,8.00
2018,04,24,03,16,8.00
2018,04,24,03,17,8.00
2018,04,24,03,18,8.10
2018,04,24,03,19,8.10
2018,04,24,03,20,8.10
2018,04,24,03,21,8.10
2018,04,24,03,22,8.10
2018,04,24,03,23,8.10
2018,04,24,03,24,8.10
2018,04,24,03,25,8.10
2018,04,24,03,26,8.10
2018,04,24,03,27,8.10
2018,04,24,03,28,8.10
2018,04,24,03,29,8.10
2018,04,24,03,30,8.10
2018,04,24,03,31,8.10
2018,04,24,03,32,8.10
2018,04,24,03,33,8.10
2018,04,24,03,34,8.00
2018,04,24,03,35,8.00
2018,04,24,03,36,8.00
2018,04,24,03,37,8.00
2018,04,24,03,38,7.90
2018,04,24,03,39,7.90
2018,04,24,03,40,7.90
2018,04,24,03,41,7.90
2018,04,24,03,42,7.90
2018,04,24,03,43,7.90
2018,04,24,03,44,7.90
2018,04,24,03,45,7.90
2018,04,24,03,46,7.90
2018,04,24,03,47,7.90
2018,04,24,03,48,7.90
2018,04,24,03,49,7.90
2018,04,24,03,50,7.90
2018,04,24,03,51,7.90
2018,04,24,03,52,7.90
2018,04,24,03,53,8.00
2018,04,24,03,54,8.00
2018,04,24,03,55,8.10
2018,04,24,03,56,8.10
2018,04,24,03,57,8.10
2018,04,24,03,58,8.10
2018,04,24,03,59,8.20
2018,04,24,04,00,8.20
2018,04,24,04,01,8.20
2018,04,24,04,02,8.20
2018,04,24,04,03,8.20
2018,04,24,04,04,8.30
2018,04,24,04,05,8.30
2018,04,24,04,06,8.40
2018,04,24,04,07,8.50
2018,04,24,04,08,8.50
2018,04,24,04,09,8.60
2018,04,24,04,10,8.70
2018,04,24,04,11,8.80
2018,04,24,04,12,8.90
2018,04,24,04,13,9.00
2018,04,24,04,14,9.20
2018,04,24,04,15,9.30
2018,04,24,04,16,9.40
2018,04,24,04,17,9.40
2018,04,24,04,18,9.50
2018,04,24,04,19,9.50
2018,04,24,04,20,9.60
2018,04,24,04,21,9.60
2018,04,24,04,22,9.70
2018,04,24,04,23,9.80
2018,04,24,04,24,9.80
2018,04,24,04,25,9.80
2018,04,24,04,26,9.90
2018,04,24,04,27,9.90
2018,04,24,04,28,10.00
2018,04,24,04,29,10.00
2018,04,24,04,30,10.10
2018,04,24,04,31,10.10
2018,04,24,04,32,10.10
2018,04,24,04,33,10.10
2018,04,24,04,34,10.20
2018,04,24,04,35,10.20
2018,04,24,04,36,10.20
2018,04,24,04,37,10.20
2018,04,24,04,38,10.20
2018,04,24,04,39,10.20
2018,04,24,04,40,10.20
2018,04,24,04,41,10.20
2018,04,24,04,42,10.20
2018,04,24,04,43,10.20
2018,04,24,04,44,10.20
2018,04,24,04,45,10.20
2018,04,24,04,46,10.20
2018,04,24,04,47,10.20
2018,04,24,04,48,10.20
2018,04,24,04,49,10.20
2018,04,24,04,50,10.20
2018,04,24,04,51,10.20
2018,04,24,04,52,10.20
2018,04,24,04,53,10.20
2018,04,24,04,54,10.20
2018,04,24,04,55,10.20
2018,04,24,04,56,10.20
2018,04,24,04,57,10.20
2018,04,24,04,58,10.20
2018,04,24,04,59,10.20
2018,04,24,05,00,10.10
2018,04,24,05,01,10.10
2018,04,24,05,02,10.10
2018,04,24,05,03,10.10
2018,04,24,05,04,10.10
2018,04,24,05,05,10.00
2018,04,24,05,06,10.00
2018,04,24,05,07,10.00
2018,04,24,05,08,10.00
2018,04,24,05,09,10.00
2018,04,24,05,10,9.90
2018,04,24,05,11,9.90
2018,04,24,05,12,9.90
2018,04,24,05,13,9.90
2018,04,24,05,14,9.90
2018,04,24,05,15,9.90
2018,04,24,05,16,10.00
2018,04,24,05,17,10.00
2018,04,24,05,18,10.10
2018,04,24,05,19,10.10
2018,04,24,05,20,10.10
2018,04,24,05,21,10.10
2018,04,24,05,22,10.10
2018,04,24,05,23,10.10
2018,04,24,05,24,10.20
2018,04,24,05,25,10.20
2018,04,24,05,26,10.20
2018,04,24,05,27,10.20
2018,04,24,05,28,10.20
2018,04,24,05,29,10.20
2018,04,24,05,30,10.20
2018,04,24,05,31,10.20
2018,04,24,05,32,10.30
2018,04,24,05,33,10.30
2018,04,24,05,34,10.30
2018,04,24,05,35,10.30
2018,04,24,05,36,10.30
2018,04,24,05,37,10.30
2018,04,24,05,38,10.30
2018,04,24,05,39,10.40
2018,04,24,05,40,10.40
2018,04,24,05,41,10.40
2018,04,24,05,42,10.40
2018,04,24,05,43,10.50
2018,04,24,05,44,10.60
2018,04,24,05,45,10.60
2018,04,24,05,46,10.60
2018,04,24,05,47,10.70
2018,04,24,05,48,10.70
2018,04,24,05,49,10.70
2018,04,24,05,50,10.80
2018,04,24,05,51,10.80
2018,04,24,05,52,10.80
2018,04,24,05,53,10.90
2018,04,24,05,54,10.90
2018,04,24,05,55,10.90
2018,04,24,05,56,10.90
2018,04,24,05,57,11.00
2018,04,24,05,58,11.00
2018,04,24,05,59,11.10
2018,04,24,06,00,11.10
2018,04,24,06,01,11.10
2018,04,24,06,02,11.10
2018,04,24,06,03,11.20
2018,04,24,06,04,11.20
2018,04,24,06,05,11.20
2018,04,24,06,06,11.20
2018,04,24,06,07,11.20
2018,04,24,06,08,11.20
2018,04,24,06,09,11.20
2018,04,24,06,10,11.30
2018,04,24,06,11,11.30
2018,04,24,06,12,11.30
2018,04,24,06,13,11.30
2018,04,24,06,14,11.30
2018,04,24,06,15,11.30
2018,04,24,06,16,11.30
2018,04,24,06,17,11.30
2018,04,24,06,18,11.30
2018,04,24,06,19,11.30
2018,04,24,06,20,11.20
2018,04,24,06,21,11.20
2018,04,24,06,22,11.20
2018,04,24,06,23,11.20
2018,04,24,06,24,11.20
2018,04,24,06,25,11.20
2018,04,24,06,26,11.20
2018,04,24,06,27,11.20
2018,04,24,06,28,11.20
2018,04,24,06,29,11.20
2018,04,24,06,30,11.20
2018,04,24,06,31,11.20
2018,04,24,06,32,11.20
2018,04,24,06,33,11.20
2018,04,24,06,34,11.10
2018,04,24,06,35,11.10
2018,04,24,06,36,11.10
2018,04,24,06,37,11.10
2018,04,24,06,38,11.10
2018,04,24,06,39,11.10
2018,04,24,06,40,11.10
2018,04,24,06,41,11.10
2018,04,24,06,42,11.10
2018,04,24,06,43,11.10
2018,04,24,06,44,11.10
2018,04,24,06,45,11.10
2018,04,24,06,46,11.10
2018,04,24,06,47,11.10
2018,04,24,06,48,11.10
2018,04,24,06,49,11.10
2018,04,24,06,50,11.10
2018,04,24,06,51,11.10
2018,04,24,06,52,11.10
2018,04,24,06,53,11.10
2018,04,24,06,54,11.20
2018,04,24,06,55,11.20
2018,04,24,06,56,11.20
2018,04,24,06,57,11.20
2018,04,24,06,58,11.20
2018,04,24,06,59,11.30
2018,04,24,07,00,11.30
2018,04,24,07,01,11.30
2018,04,24,07,02,11.30
2018,04,24,07,03,11.30
2018,04,24,07,04,11.30
2018,04,24,07,05,11.40
2018,04,24,07,06,11.40
2018,04,24,07,07,11.40
2018,04,24,07,08,11.40
2018,04,24,07,09,11.40
2018,04,24,07,10,11.40
2018,04,24,07,11,11.40
2018,04,24,07,12,11.40
2018,04,24,07,13,11.40
2018,04,24,07,14,11.50
2018,04,24,07,15,11.50
2018,04,24,07,16,11.60
2018,04,24,07,17,11.60
2018,04,24,07,18,11.60
2018,04,24,07,19,11.60
2018,04,24,07,20,11.60
2018,04,24,07,21,11.70
2018,04,24,07,22,11.70
2018,04,24,07,23,11.70
2018,04,24,07,24,11.70
2018,04,24,07,25,11.80
2018,04,24,07,26,11.80
2018,04,24,07,27,11.80
2018,04,24,07,28,11.80
2018,04,24,07,29,11.90
2018,04,24,07,30,11.90
2018,04,24,07,31,11.90
2018,04,24,07,32,12.00
2018,04,24,07,33,12.00
2018,04,24,07,34,12.10
2018,04,24,07,35,12.10
2018,04,24,07,36,12.10
2018,04,24,07,37,12.10
2018,04,24,07,38,12.20
2018,04,24,07,39,12.20
2018,04,24,07,40,12.20
2018,04,24,07,41,12.20
2018,04,24,07,42,12.30
2018,04,24,07,43,12.30
2018,04,24,07,44,12.30
2018,04,24,07,45,12.40
2018,04,24,07,46,12.40
2018,04,24,07,47,12.40
2018,04,24,07,48,12.50
2018,04,24,07,49,12.50
2018,04,24,07,50,12.60
2018,04,24,07,51,12.60
2018,04,24,07,52,12.60
2018,04,24,07,53,12.70
2018,04,24,07,54,12.70
2018,04,24,07,55,12.70
2018,04,24,07,56,12.80
2018,04,24,07,57,12.80
2018,04,24,07,58,12.90
2018,04,24,07,59,12.90
2018,04,24,08,00,13.00
2018,04,24,08,01,13.00
2018,04,24,08,02,13.10
2018,04,24,08,03,13.10
2018,04,24,08,04,13.20
2018,04,24,08,05,13.20
2018,04,24,08,06,13.20
2018,04,24,08,07,13.30
2018,04,24,08,08,13.30
2018,04,24,08,09,13.30
2018,04,24,08,10,13.30
2018,04,24,08,11,13.40
2018,04,24,08,12,13.40
2018,04,24,08,13,13.40
2018,04,24,08,14,13.40
2018,04,24,08,15,13.40
2018,04,24,08,16,13.40
2018,04,24,08,17,13.40
2018,04,24,08,18,13.40
2018,04,24,08,19,13.50
2018,04,24,08,20,13.50
2018,04,24,08,21,13.50
2018,04,24,08,22,13.50
2018,04,24,08,23,13.50
2018,04,24,08,24,13.50
2018,04,24,08,25,13.60
2018,04,24,08,26,13.60
2018,04,24,08,27,13.60
2018,04,24,08,28,13.60
2018,04,24,08,29,13.60
2018,04,24,08,30,13.70
2018,04,24,08,31,13.70
2018,04,24,08,32,13.70
2018,04,24,08,33,13.70
2018,04,24,08,34,13.70
2018,04,24,08,35,13.70
2018,04,24,08,36,13.70
2018,04,24,08,37,13.70
2018,04,24,08,38,13.70
2018,04,24,08,39,13.70
2018,04,24,08,40,13.80
2018,04,24,08,41,13.80
2018,04,24,08,42,13.80
2018,04,24,08,43,13.80
2018,04,24,08,44,13.80
2018,04,24,08,45,13.80
2018,04,24,08,46,13.80
2018,04,24,08,47,13.80
2018,04,24,08,48,13.80
2018,04,24,08,49,13.90
2018,04,24,08,50,13.90
2018,04,24,08,51,13.90
2018,04,24,08,52,13.90
2018,04,24,08,53,13.90
2018,04,24,08,54,13.90
2018,04,24,08,55,13.90
2018,04,24,08,56,14.00
2018,04,24,08,57,14.00
2018,04,24,08,58,14.00
2018,04,24,08,59,14.10
2018,04,24,09,00,14.10
2018,04,24,09,01,14.10
2018,04,24,09,02,14.20
2018,04,24,09,03,14.20
2018,04,24,09,04,14.20
2018,04,24,09,05,14.20
2018,04,24,09,06,14.30
2018,04,24,09,07,14.30
2018,04,24,09,08,14.30
2018,04,24,09,09,14.30
2018,04,24,09,10,14.40
2018,04,24,09,11,14.40
2018,04,24,09,12,14.40
2018,04,24,09,13,14.40
2018,04,24,09,14,14.50
2018,04,24,09,15,14.50
2018,04,24,09,16,14.50
2018,04,24,09,17,14.50
2018,04,24,09,18,14.50
2018,04,24,09,19,14.60
2018,04,24,09,20,14.60
2018,04,24,09,21,14.60
2018,04,24,09,22,14.70
2018,04,24,09,23,14.70
2018,04,24,09,24,14.70
2018,04,24,09,25,14.70
2018,04,24,09,26,14.80
2018,04,24,09,27,14.80
2018,04,24,09,28,14.80
2018,04,24,09,29,14.80
2018,04,24,09,30,14.80
2018,04,24,09,31,14.80
2018,04,24,09,32,14.80
2018,04,24,09,33,14.80
2018,04,24,09,34,14.80
2018,04,24,09,35,14.80
2018,04,24,09,36,14.80
2018,04,24,09,37,14.80
2018,04,24,09,38,14.80
2018,04,24,09,39,14.80
2018,04,24,09,40,14.80
2018,04,24,09,41,14.80
2018,04,24,09,42,14.80
2018,04,24,09,43,14.80
2018,04,24,09,44,14.80
2018,04,24,09,45,14.80
2018,04,24,09,46,14.80
2018,04,24,09,47,14.80
2018,04,24,09,48,14.80
2018,04,24,09,49,14.80
2018,04,24,09,50,14.80
2018,04,24,09,51,14.80
2018,04,24,09,52,14.80
2018,04,24,09,53,14.90
2018,04,24,09,54,14.90
2018,04,24,09,55,14.90
2018,04,24,09,56,15.00
2018,04,24,09,57,15.00
2018,04,24,09,58,15.00
2018,04,24,09,59,15.10
2018,04,24,10,00,15.10
2018,04,24,10,01,15.10
2018,04,24,10,02,15.10
2018,04,24,10,03,15.20
2018,04,24,10,04,15.20
2018,04,24,10,05,15.20
2018,04,24,10,06,15.20
2018,04,24,10,07,15.20
2018,04,24,10,08,15.30
2018,04,24,10,09,15.30
2018,04,24,10,10,15.30
2018,04,24,10,11,15.30
2018,04,24,10,12,15.30
2018,04,24,10,13,15.30
2018,04,24,10,14,15.40
2018,04,24,10,15,15.40
2018,04,24,10,16,15.40
2018,04,24,10,17,15.50
2018,04,24,10,18,15.60
2018,04,24,10,19,15.60
2018,04,24,10,20,15.60
2018,04,24,10,21,15.60
2018,04,24,10,22,15.60
2018,04,24,10,23,15.70
2018,04,24,10,24,15.70
2018,04,24,10,25,15.70
2018,04,24,10,26,15.70
2018,04,24,10,27,15.80
2018,04,24,10,28,15.80
2018,04,24,10,29,15.80
2018,04,24,10,30,15.80
2018,04,24,10,31,15.80
2018,04,24,10,32,15.90
2018,04,24,10,33,15.90
2018,04,24,10,34,15.90
2018,04,24,10,35,15.90
2018,04,24,10,36,16.00
2018,04,24,10,37,16.10
2018,04,24,10,38,16.10
2018,04,24,10,39,16.10
2018,04,24,10,40,16.20
2018,04,24,10,41,16.20
2018,04,24,10,42,16.30
2018,04,24,10,43,16.30
2018,04,24,10,44,16.30
2018,04,24,10,45,16.40
2018,04,24,10,46,16.40
2018,04,24,10,47,16.40
2018,04,24,10,48,16.50
2018,04,24,10,49,16.50
2018,04,24,10,50,16.60
2018,04,24,10,51,16.60
2018,04,24,10,52,16.60
2018,04,24,10,53,16.60
2018,04,24,10,54,16.60
2018,04,24,10,55,16.60
2018,04,24,10,56,16.60
2018,04,24,10,57,16.50
2018,04,24,10,58,16.50
2018,04,24,10,59,16.50
2018,04,24,11,00,16.50
2018,04,24,11,01,16.50
2018,04,24,11,02,16.50
2018,04,24,11,03,16.60
2018,04,24,11,04,16.60
2018,04,24,11,05,16.60
2018,04,24,11,06,16.60
2018,04,24,11,07,16.60
2018,04,24,11,08,16.70
2018,04,24,11,09,16.70
2018,04,24,11,10,16.80
2018,04,24,11,11,16.80
2018,04,24,11,12,16.80
2018,04,24,11,13,16.80
2018,04,24,11,14,16.90
2018,04,24,11,15,16.90
2018,04,24,11,16,17.00
2018,04,24,11,17,17.10
2018,04,24,11,18,17.10
2018,04,24,11,19,17.10
2018,04,24,11,20,17.20
2018,04,24,11,21,17.20
2018,04,24,11,22,17.20
2018,04,24,11,23,17.20
2018,04,24,11,24,17.20
2018,04,24,11,25,17.20
2018,04,24,11,26,17.30
2018,04,24,11,27,17.30
2018,04,24,11,28,17.30
2018,04,24,11,29,17.30
2018,04,24,11,30,17.40
2018,04,24,11,31,17.40
2018,04,24,11,32,17.50
2018,04,24,11,33,17.60
2018,04,24,11,34,17.60
2018,04,24,11,35,17.60
2018,04,24,11,36,17.70
2018,04,24,11,37,17.70
2018,04,24,11,38,17.70
2018,04,24,11,39,17.70
2018,04,24,11,40,17.70
2018,04,24,11,41,17.70
2018,04,24,11,42,17.80
2018,04,24,11,43,17.80
2018,04,24,11,44,17.80
2018,04,24,11,45,17.80
2018,04,24,11,46,17.80
2018,04,24,11,47,17.80
2018,04,24,11,48,17.80
2018,04,24,11,49,17.80
2018,04,24,11,50,17.80
2018,04,24,11,51,17.70
2018,04,24,11,52,17.70
2018,04,24,11,53,17.70
2018,04,24,11,54,17.60
2018,04,24,11,55,17.60
2018,04,24,11,56,17.60
2018,04,24,11,57,17.60
2018,04,24,11,58,17.60
2018,04,24,11,59,17.60
2018,04,24,12,00,17.60
2018,04,24,12,01,17.70
2018,04,24,12,02,17.70
2018,04,24,12,03,17.70
2018,04,24,12,04,17.70
2018,04,24,12,05,17.80
2018,04,24,12,06,17.80
2018,04,24,12,07,17.80
2018,04,24,12,08,17.80
2018,04,24,12,09,17.80
2018,04,24,12,10,17.80
2018,04,24,12,11,17.80
2018,04,24,12,12,17.80
2018,04,24,12,13,17.90
2018,04,24,12,14,17.90
2018,04,24,12,15,17.90
2018,04,24,12,16,17.90
2018,04,24,12,17,17.90
2018,04,24,12,18,17.90
2018,04,24,12,19,18.00
2018,04,24,12,20,18.00
2018,04,24,12,21,18.00
2018,04,24,12,22,17.90
2018,04,24,12,23,17.90
2018,04,24,12,24,17.90
2018,04,24,12,25,17.90
2018,04,24,12,26,17.80
2018,04,24,12,27,17.80
2018,04,24,12,28,17.80
2018,04,24,12,29,17.80
2018,04,24,12,30,17.80
2018,04,24,12,31,17.80
2018,04,24,12,32,17.80
2018,04,24,12,33,17.90
2018,04,24,12,34,18.00
2018,04,24,12,35,18.00
2018,04,24,12,36,18.10
2018,04,24,12,37,18.10
2018,04,24,12,38,18.20
2018,04,24,12,39,18.30
2018,04,24,12,40,18.30
2018,04,24,12,41,18.30
2018,04,24,12,42,18.40
2018,04,24,12,43,18.40
2018,04,24,12,44,18.40
2018,04,24,12,45,18.40
2018,04,24,12,46,18.40
2018,04,24,12,47,18.40
2018,04,24,12,48,18.40
2018,04,24,12,49,18.40
2018,04,24,12,50,18.40
2018,04,24,12,51,18.50
2018,04,24,12,52,18.50
2018,04,24,12,53,18.50
2018,04,24,12,54,18.50
2018,04,24,12,55,18.60
2018,04,24,12,56,18.60
2018,04,24,12,57,18.70
2018,04,24,12,58,18.70
2018,04,24,12,59,18.70
2018,04,24,13,00,18.70
2018,04,24,13,01,18.80
2018,04,24,13,02,18.80
2018,04,24,13,03,18.80
2018,04,24,13,04,18.90
2018,04,24,13,05,18.90
2018,04,24,13,06,18.90
2018,04,24,13,07,19.00
2018,04,24,13,08,19.00
2018,04,24,13,09,19.00
2018,04,24,13,10,19.00
2018,04,24,13,11,19.00
2018,04,24,13,12,19.00
2018,04,24,13,13,19.00
2018,04,24,13,14,19.00
2018,04,24,13,15,19.00
2018,04,24,13,16,19.00
2018,04,24,13,17,19.10
2018,04,24,13,18,19.20
2018,04,24,13,19,19.20
2018,04,24,13,20,19.30
2018,04,24,13,21,19.30
2018,04,24,13,22,19.30
2018,04,24,13,23,19.30
2018,04,24,13,24,19.30
2018,04,24,13,25,19.30
2018,04,24,13,26,19.30
2018,04,24,13,27,19.30
2018,04,24,13,28,19.30
2018,04,24,13,29,19.30
2018,04,24,13,30,19.40
2018,04,24,13,31,19.40
2018,04,24,13,32,19.40
2018,04,24,13,33,19.40
2018,04,24,13,34,19.40
2018,04,24,13,35,19.40
2018,04,24,13,36,19.40
2018,04,24,13,37,19.50
2018,04,24,13,38,19.50
2018,04,24,13,39,19.50
2018,04,24,13,40,19.50
2018,04,24,13,41,19.50
2018,04,24,13,42,19.50
2018,04,24,13,43,19.50
2018,04,24,13,44,19.40
2018,04,24,13,45,19.40
2018,04,24,13,46,19.40
2018,04,24,13,47,19.40
2018,04,24,13,48,19.40
2018,04,24,13,49,19.40
2018,04,24,13,50,19.40
2018,04,24,13,51,19.50
2018,04,24,13,52,19.50
2018,04,24,13,53,19.60
2018,04,24,13,54,19.60
2018,04,24,13,55,19.60
2018,04,24,13,56,19.70
2018,04,24,13,57,19.70
2018,04,24,13,58,19.70
2018,04,24,13,59,19.80
2018,04,24,14,00,19.80
2018,04,24,14,01,19.80
2018,04,24,14,02,19.80
2018,04,24,14,03,19.90
2018,04,24,14,04,19.90
2018,04,24,14,05,19.90
2018,04,24,14,06,19.90
2018,04,24,14,07,19.90
2018,04,24,14,08,19.90
2018,04,24,14,09,19.90
2018,04,24,14,10,20.00
2018,04,24,14,11,20.00
2018,04,24,14,12,20.00
2018,04,24,14,13,20.10
2018,04,24,14,14,20.10
2018,04,24,14,15,20.10
2018,04,24,14,16,20.20
2018,04,24,14,17,20.30
2018,04,24,14,18,20.30
2018,04,24,14,19,20.40
2018,04,24,14,20,20.40
2018,04,24,14,21,20.40
2018,04,24,14,22,20.40
2018,04,24,14,23,20.40
2018,04,24,14,24,20.40
2018,04,24,14,25,20.40
2018,04,24,14,26,20.40
2018,04,24,14,27,20.40
2018,04,24,14,28,20.50
2018,04,24,14,29,20.50
2018,04,24,14,30,20.60
2018,04,24,14,31,20.60
2018,04,24,14,32,20.70
2018,04,24,14,33,20.70
2018,04,24,14,34,20.70
2018,04,24,14,35,20.80
2018,04,24,14,36,20.80
2018,04,24,14,37,20.80
2018,04,24,14,38,20.80
2018,04,24,14,39,20.80
2018,04,24,14,40,20.80
2018,04,24,14,41,20.80
2018,04,24,14,42,20.80
2018,04,24,14,43,20.80
2018,04,24,14,44,20.80
2018,04,24,14,45,20.90
2018,04,24,14,46,20.90
2018,04,24,14,47,20.90
2018,04,24,14,48,21.00
2018,04,24,14,49,21.00
2018,04,24,14,50,21.10
2018,04,24,14,51,21.10
2018,04,24,14,52,21.10
2018,04,24,14,53,21.10
2018,04,24,14,54,21.10
2018,04,24,14,55,21.10
2018,04,24,14,56,21.10
2018,04,24,14,57,21.10
2018,04,24,14,58,21.20
2018,04,24,14,59,21.20
2018,04,24,15,00,21.20
2018,04,24,15,01,21.30
2018,04,24,15,02,21.30
2018,04,24,15,03,21.30
2018,04,24,15,04,21.30
2018,04,24,15,05,21.30
2018,04,24,15,06,21.30
2018,04,24,15,07,21.30
2018,04,24,15,08,21.30
2018,04,24,15,09,21.30
2018,04,24,15,10,21.20
2018,04,24,15,11,21.20
2018,04,24,15,12,21.20
2018,04,24,15,13,21.20
2018,04,24,15,14,21.20
2018,04,24,15,15,21.20
2018,04,24,15,16,21.20
2018,04,24,15,17,21.20
2018,04,24,15,18,21.20
2018,04,24,15,19,21.20
2018,04,24,15,20,21.20
2018,04,24,15,21,21.30
2018,04,24,15,22,21.30
2018,04,24,15,23,21.30
2018,04,24,15,24,21.30
2018,04,24,15,25,21.30
2018,04,24,15,26,21.30
2018,04,24,15,27,21.30
2018,04,24,15,28,21.30
2018,04,24,15,29,21.30
2018,04,24,15,30,21.30
2018,04,24,15,31,21.30
2018,04,24,15,32,21.30
2018,04,24,15,33,21.30
2018,04,24,15,34,21.30
2018,04,24,15,35,21.30
2018,04,24,15,36,21.30
2018,04,24,15,37,21.20
2018,04,24,15,38,21.20
2018,04,24,15,39,21.20
2018,04,24,15,40,21.20
2018,04,24,15,41,21.20
2018,04,24,15,42,21.20
2018,04,24,15,43,21.20
2018,04,24,15,44,21.20
2018,04,24,15,45,21.20
2018,04,24,15,46,21.20
2018,04,24,15,47,21.20
2018,04,24,15,48,21.20
2018,04,24,15,49,21.20
2018,04,24,15,50,21.20
2018,04,24,15,51,21.20
2018,04,24,15,52,21.20
2018,04,24,15,53,21.30
2018,04,24,15,54,21.30
2018,04,24,15,55,21.30
2018,04,24,15,56,21.40
2018,04,24,15,57,21.40
2018,04,24,15,58,21.40
2018,04,24,15,59,21.50
2018,04,24,16,00,21.60
2018,04,24,16,01,21.60
2018,04,24,16,02,21.60
2018,04,24,16,03,21.70
2018,04,24,16,04,21.70
2018,04,24,16,05,21.70
2018,04,24,16,06,21.80
2018,04,24,16,07,21.70
2018,04,24,16,08,21.70
2018,04,24,16,09,21.70
2018,04,24,16,10,21.70
2018,04,24,16,11,21.70
2018,04,24,16,12,21.70
2018,04,24,16,13,21.70
2018,04,24,16,14,21.70
2018,04,24,16,15,21.70
2018,04,24,16,16,21.70
2018,04,24,16,17,21.70
2018,04,24,16,18,21.70
2018,04,24,16,19,21.80
2018,04,24,16,20,21.80
2018,04,24,16,21,21.80
2018,04,24,16,22,21.90
2018,04,24,16,23,21.90
2018,04,24,16,24,21.90
2018,04,24,16,25,21.90
2018,04,24,16,26,21.90
2018,04,24,16,27,21.90
2018,04,24,16,28,21.90
2018,04,24,16,29,21.90
2018,04,24,16,30,21.80
2018,04,24,16,31,21.80
2018,04,24,16,32,21.80
2018,04,24,16,33,21.80
2018,04,24,16,34,21.80
2018,04,24,16,35,21.80
2018,04,24,16,36,21.80
2018,04,24,16,37,21.80
2018,04,24,16,38,21.80
2018,04,24,16,39,21.80
2018,04,24,16,40,21.80
2018,04,24,16,41,21.80
2018,04,24,16,42,21.90
2018,04,24,16,43,21.90
2018,04,24,16,44,21.90
2018,04,24,16,45,21.90
2018,04,24,16,46,21.90
2018,04,24,16,47,21.90
2018,04,24,16,48,21.90
2018,04,24,16,49,21.90
2018,04,24,16,50,21.80
2018,04,24,16,51,21.80
2018,04,24,16,52,21.80
2018,04,24,16,53,21.80
2018,04,24,16,54,21.80
2018,04,24,16,55,21.70
2018,04,24,16,56,21.70
2018,04,24,16,57,21.70
2018,04,24,16,58,21.70
2018,04,24,16,59,21.70
2018,04,24,17,00,21.70
2018,04,24,17,01,21.70
2018,04,24,17,02,21.70
2018,04,24,17,03,21.70
2018,04,24,17,04,21.70
2018,04,24,17,05,21.70
2018,04,24,17,06,21.70
2018,04,24,17,07,21.70
2018,04,24,17,08,21.70
2018,04,24,17,09,21.70
2018,04,24,17,10,21.60
2018,04,24,17,11,21.60
2018,04,24,17,12,21.60
2018,04,24,17,13,21.60
2018,04,24,17,14,21.60
2018,04,24,17,15,21.50
2018,04,24,17,16,21.50
2018,04,24,17,17,21.50
2018,04,24,17,18,21.50
2018,04,24,17,19,21.50
2018,04,24,17,20,21.50
2018,04,24,17,21,21.50
2018,04,24,17,22,21.50
2018,04,24,17,23,21.50
2018,04,24,17,24,21.50
2018,04,24,17,25,21.50
2018,04,24,17,26,21.60
2018,04,24,17,27,21.60
2018,04,24,17,28,21.60
2018,04,24,17,29,21.60
2018,04,24,17,30,21.60
2018,04,24,17,31,21.60